Zurück zum Katalog

STARLINK-30184

AktivKommunikationVLEO
NORAD 57310·PAYLOAD·🇺🇸 United States

Gestartet Jul 10, 2023 von Cape Canaveral Space Force Station

Loading…

Nächste Überflüge (nächste 24 Stunden)

TLE

AktuellSource: CelesTrak SupGP

Epoche: Sep 15, 2026, 02:26 UTC

1 57310C 23096W   26258.10187500 -.00047312  00000+0 -17139-2 0  2580
2 57310  42.9998 204.7696 0001325 272.2676 276.4997 15.27597180    16

Verfolge STARLINK-30184 in Echtzeit mit AllMySat

Download on the App Store